Wind_Speed
2 2 2 2 1 1 1 1 1 1 1 0 0 1 1 1 1 1 1 2 2 3 3 3 4 4 4 5 5 6 6 6 6 6 6 6 6 6 6 6 5 5 5 5 5 6 6 7 7
2 2 3 3 2 1 1 1 1 2 1 1 1 1 1 2 2 2 2 2 3 4 4 4 4 5 5 6 6 6 7 7 6 6 6 6 6 6 7 6 6 6 6 6 6 7 7 7 7
3 3 3 3 2 2 2 2 2 2 2 2 2 1 2 2 3 3 3 3 3 4 4 5 5 6 6 6 6 7 7 7 7 7 7 7 6 6 7 6 6 6 6 6 6 7 7 7 8
3 3 3 3 3 3 3 2 2 2 2 2 2 2 2 3 3 3 3 4 4 4 5 5 6 6 7 7 7 7 7 7 7 7 7 7 7 7 7 7 6 6 6 6 7 7 7 7 8
4 4 3 3 3 3 3 2 3 3 3 3 3 3 3 3 4 4 4 4 5 5 5 6 6 6 7 7 7 7 7 8 7 7 7 7 7 7 8 7 7 7 7 7 7 7 7 7 7
4 4 3 3 3 4 4 3 3 3 4 4 4 4 4 4 4 4 5 5 5 6 6 7 7 7 7 7 7 8 8 7 8 8 7 7 7 8 8 7 7 7 7 7 7 7 8 7 7
4 4 3 4 4 4 4 4 4 4 4 4 5 6 6 5 5 5 6 6 6 7 7 7 7 7 7 8 8 8 8 8 8 8 7 7 7 7 7 8 8 8 7 8 8 8 8 8 8
5 5 4 4 5 5 5 5 4 5 5 5 5 6 6 6 5 6 6 6 6 6 7 7 7 8 8 8 8 8 8 7 7 7 7 8 7 7 8 8 8 9 9 9 9 9 9 9 9
6 6 5 5 5 6 6 6 5 5 6 6 6 6 6 6 6 6 6 6 6 6 6 7 7 8 8 8 8 8 8 8 7 8 8 8 8 8 8 8 8 9 9 9 9 9 9 9 9
6 6 6 6 6 7 7 7 6 6 6 6 6 6 7 7 7 6 6 6 6 6 6 7 7 7 8 8 8 8 8 8 8 9 9 9 9 9 9 9 9 9 9 9 9 10 10 9 9
7 7 7 7 7 8 8 8 7 7 7 7 6 7 7 7 7 7 6 6 7 7 6 7 7 7 7 7 8 8 8 8 8 8 9 9 9 9 9 10 10 10 10 10 10 10 10 10 10
7 7 7 7 8 8 8 8 8 8 8 8 8 7 7 7 7 6 6 6 6 6 7 6 7 7 7 7 8 8 9 8 9 9 9 9 9 10 10 10 10 10 10 10 9 10 10 10 10
7 7 7 8 8 8 9 9 8 8 9 9 9 8 7 7 7 7 6 6 6 7 7 7 8 8 8 7 8 9 9 9 9 9 9 10 9 9 9 9 9 9 9 9 9 9 10 10 10
8 8 9 9 9 9 9 9 9 8 9 9 9 9 8 8 8 8 7 7 7 7 8 8 8 9 8 8 9 9 10 10 10 10 10 9 9 9 9 9 9 9 9 9 9 10 11 11 11
9 10 10 10 10 10 11 10 10 10 10 9 9 9 9 9 9 9 8 8 8 9 9 9 9 9 9 9 10 10 10 10 10 9 9 9 9 9 9 10 10 10 10 10 10 11 11 11 11
10 11 11 11 11 11 12 12 11 11 11 10 10 10 10 10 10 9 9 9 9 10 10 9 10 10 10 10 10 10 10 10 10 9 8 8 9 9 9 9 9 10 10 10 10 10 11 11 11
12 12 12 12 12 13 13 12 11 11 12 11 11 11 10 10 10 10 10 10 10 10 10 11 10 10 11 11 10 10 10 10 9 9 8 8 9 9 8 8 8 9 10 10 10 10 11 11 11
13 13 13 13 13 14 13 13 13 12 12 12 12 12 12 11 11 11 11 10 10 10 11 11 11 11 11 11 11 10 9 9 9 9 8 8 8 8 8 8 9 9 10 10 10 10 10 11 11
14 14 14 14 14 14 14 14 13 12 12 12 12 12 12 12 12 11 11 11 12 12 12 11 11 11 11 10 10 10 9 9 9 9 9 8 8 9 9 9 10 10 11 11 11 10 10 10 10
14 14 14 15 15 15 14 14 13 12 13 12 12 12 13 13 12 12 12 12 12 12 12 12 12 12 12 11 11 10 10 10 10 10 9 9 9 9 10 10 11 11 11 11 11 11 11 11 11
14 14 14 14 15 15 15 14 13 13 13 13 13 12 13 13 13 13 13 13 12 13 13 13 13 12 12 12 11 11 11 11 11 10 10 10 10 10 11 11 11 12 12 12 12 11 12 12 12
15 14 15 15 15 15 15 15 14 14 14 14 14 14 14 14 14 14 14 13 13 13 13 14 14 13 12 12 12 12 12 11 11 11 11 10 11 11 11 12 12 12 13 13 13 13 13 13 13
15 15 15 15 15 15 14 15 15 15 15 15 15 15 15 15 15 15 15 14 14 14 14 15 14 13 12 12 12 12 12 13 13 13 12 12 12 12 12 13 13 13 13 13 14 14 14 14 14
16 15 16 16 16 15 15 16 15 15 16 16 16 16 16 16 16 16 16 16 15 15 15 14 14 13 13 13 13 13 13 13 14 14 13 13 12 12 13 13 14 14 14 14 14 15 15 15 15
17 17 17 17 16 15 15 16 16 16 17 17 17 17 17 17 16 16 16 16 16 16 15 15 15 15 14 14 14 14 14 14 14 13 14 14 14 14 15 14 14 15 15 15 15 16 16 16 16
18 18 18 18 17 16 16 16 16 17 17 17 17 17 17 16 16 16 16 16 16 15 15 14 14 15 15 15 16 16 16 16 16 15 15 15 16 16 16 16 15 16 16 17 16 17 17 17 17
18 18 18 19 19 19 18 17 17 17 17 17 17 17 16 16 16 17 17 16 16 15 15 15 15 15 15 16 16 17 17 17 18 17 17 16 17 17 18 18 17 18 18 18 18 17 18 18 18
18 18 19 20 20 20 19 18 17 17 18 18 17 17 17 17 17 17 18 17 17 16 16 16 16 17 17 17 17 18 18 19 19 19 19 18 18 18 18 19 19 19 20 20 19 19 19 19 20
19 19 20 21 21 21 20 18 17 17 18 18 18 18 18 18 18 18 18 17 17 17 18 17 17 18 18 18 18 19 19 20 20 20 21 21 20 20 19 19 20 21 21 22 21 21 21 21 22
21 21 21 22 22 22 21 19 18 18 18 19 19 19 19 19 19 19 19 19 18 19 18 18 18 19 19 20 19 20 21 21 21 22 22 22 22 22 22 22 22 22 22 23 23 23 23 23 23
Wind_Direction
280 295 287 276 280 309 347 10 14 353 346 99 37 38 30 8 346 335 333 320 308 309 313 313 315 316 319 319 321 323 325 322 321 323 325 325 327 330 328 322 316 303 292 284 280 280 277 275 275
274 282 286 286 283 295 304 323 325 346 346 334 348 15 358 343 331 325 323 313 300 302 303 303 305 310 312 311 312 316 320 315 313 313 314 314 315 317 314 314 307 296 288 286 285 281 276 274 275
274 279 288 296 289 288 296 313 315 318 334 325 321 319 322 325 314 310 314 314 309 303 301 299 301 303 305 306 309 313 318 313 309 308 306 308 310 313 311 308 305 295 290 287 286 283 279 278 278
270 275 283 290 285 285 293 298 295 292 307 299 295 301 308 313 307 305 309 309 306 306 306 304 303 304 305 303 306 309 311 311 307 307 305 303 304 306 304 301 299 294 291 290 289 291 287 285 280
273 272 278 280 278 283 290 297 300 301 297 296 297 303 309 314 309 307 307 306 303 300 302 304 304 305 304 304 305 306 305 304 306 303 303 302 303 306 303 294 290 290 290 289 291 294 291 287 280
278 277 276 273 278 284 290 299 310 309 297 291 292 295 303 304 307 305 300 300 302 301 298 299 302 305 306 305 306 304 303 300 300 299 297 298 302 304 305 301 296 292 289 287 288 291 289 282 277
280 276 273 275 283 287 293 294 298 306 295 293 292 293 296 298 301 303 303 297 296 300 302 301 301 302 304 304 304 303 301 300 299 298 296 296 296 295 296 295 294 290 289 286 285 288 287 281 277
275 274 273 274 279 287 292 300 302 295 294 296 300 297 299 298 297 299 300 302 301 301 302 303 301 299 298 300 300 301 300 297 294 293 294 296 297 293 292 291 290 288 286 285 282 286 287 281 277
275 275 278 276 277 282 287 292 296 294 293 296 299 299 300 300 298 295 297 300 302 302 304 304 305 303 300 299 300 300 297 295 294 294 296 295 296 296 292 288 288 285 284 283 281 286 287 280 276
277 276 273 272 277 281 283 285 289 289 293 291 292 294 297 297 297 291 289 294 298 300 305 306 308 310 307 304 303 300 298 296 295 295 294 294 295 294 290 286 286 285 282 280 281 282 283 282 279
274 276 273 271 275 277 280 281 282 283 286 289 288 290 291 291 296 291 288 290 294 298 301 305 307 309 309 307 304 303 301 299 297 296 292 291 292 293 290 286 283 282 280 280 282 281 280 280 279
276 279 278 277 279 279 281 282 281 282 287 287 286 286 286 285 287 288 282 288 295 299 303 308 310 308 308 307 307 305 303 302 298 294 291 291 292 292 290 286 282 280 282 284 280 280 279 282 284
280 280 279 281 281 282 283 283 282 284 287 286 283 281 283 283 281 281 281 284 291 296 301 305 310 309 308 307 307 306 302 300 298 291 291 289 288 290 290 286 286 285 285 283 280 278 281 282 282
283 281 281 284 284 284 283 283 283 288 288 284 281 279 278 279 281 282 284 284 289 296 298 302 306 305 304 303 302 305 305 297 294 290 287 287 285 285 288 287 286 283 282 280 279 284 287 284 282
283 283 283 284 284 283 283 282 283 286 286 285 282 278 278 278 281 283 285 283 287 291 295 297 299 301 301 300 301 303 303 300 295 291 287 286 285 286 290 291 290 288 287 284 283 286 287 285 284
283 283 284 282 280 280 280 280 282 281 281 281 281 279 278 280 280 279 280 282 283 285 286 289 291 293 294 295 297 300 304 304 298 291 285 284 286 288 291 293 294 293 293 293 285 285 285 285 284
288 287 285 281 277 277 277 277 274 276 276 276 275 276 276 277 278 278 278 281 282 282 283 284 286 288 289 289 292 295 299 301 297 293 286 284 286 288 292 295 294 294 295 294 289 286 286 285 284
290 288 284 280 277 276 277 276 275 273 272 273 272 272 272 272 273 274 274 276 278 281 285 287 286 287 285 283 286 289 294 297 296 293 291 285 285 288 291 294 294 294 295 297 295 289 287 288 287
286 285 283 281 278 276 277 278 277 275 274 275 273 272 270 269 268 270 272 276 279 280 282 286 285 286 283 280 283 286 287 289 292 292 293 289 286 289 291 295 297 294 296 297 297 294 289 287 286
282 284 283 281 279 276 275 276 276 273 273 273 272 269 268 267 266 269 273 277 280 280 282 285 284 283 279 277 278 280 283 283 283 285 288 288 288 289 289 290 294 293 292 293 293 292 290 289 288
282 283 282 282 280 276 275 273 274 271 269 272 272 271 269 268 270 272 273 276 279 280 282 285 285 282 278 276 274 274 278 280 280 280 283 282 285 289 293 290 289 290 290 290 290 290 289 290 290
281 283 280 281 282 276 275 274 274 271 270 271 272 271 272 271 272 272 274 275 277 278 280 283 283 281 277 274 271 272 274 274 275 277 279 279 281 284 287 288 289 289 288 288 289 289 287 287 289
280 280 279 282 284 277 275 277 276 273 273 273 272 273 273 274 273 272 273 274 275 275 278 280 280 279 276 274 271 270 271 271 272 273 275 277 279 283 286 287 287 285 285 286 288 289 288 286 287
277 276 277 280 284 280 279 279 278 277 276 275 273 275 276 275 273 272 270 271 272 275 276 277 278 278 277 274 271 270 267 267 270 272 272 274 279 283 285 287 287 287 284 286 286 286 287 287 286
275 275 277 281 284 285 284 282 283 281 279 278 276 276 277 274 272 274 273 273 273 275 276 276 277 278 277 274 270 270 270 269 271 275 274 275 278 281 284 283 285 285 285 285 286 288 287 287 286
275 275 277 281 284 286 287 283 285 284 283 283 279 275 274 272 269 269 270 273 274 274 275 275 277 279 278 276 271 269 270 271 270 275 274 276 278 278 281 282 281 280 281 284 285 285 286 287 287
273 272 274 277 282 285 286 286 284 283 283 282 278 275 272 270 269 269 270 274 273 274 276 277 278 278 278 277 274 271 271 271 270 273 274 275 277 278 279 281 280 278 278 281 283 284 285 286 287
271 273 273 275 278 284 284 283 284 283 282 281 277 273 273 272 273 275 273 272 271 272 275 277 281 281 279 279 277 274 272 272 272 272 273 276 278 278 279 280 279 279 279 281 283 284 285 286 286
270 271 271 274 275 280 283 281 282 282 280 280 277 273 272 271 273 277 278 273 272 272 274 277 279 280 277 277 276 276 274 273 273 273 273 274 276 277 278 279 281 280 279 281 283 284 285 285 286
270 272 272 273 274 275 279 279 280 282 279 277 275 274 272 271 272 273 274 274 276 277 277 278 278 278 277 276 277 279 278 276 275 275 275 274 276 277 279 279 280 280 278 279 281 281 282 282 284
Height
5870 5870 5871 5872 5873 5872 5872 5872 5872 5871 5871 5871 5871 5872 5872 5872 5873 5875 5873 5871 5871 5872 5872 5871 5871 5871 5871 5870 5870 5869 5869 5869 5868 5868 5867 5867 5866 5866 5865 5865 5864 5864 5864 5864 5864 5864 5864 5864 5864
5870 5871 5872 5872 5872 5872 5873 5872 5872 5872 5872 5871 5871 5871 5871 5872 5872 5872 5871 5871 5871 5871 5871 5871 5871 5870 5870 5870 5869 5869 5868 5867 5867 5867 5866 5866 5865 5865 5864 5864 5863 5863 5863 5863 5863 5863 5863 5863 5863
5870 5871 5872 5872 5872 5872 5873 5872 5872 5872 5872 5872 5872 5871 5871 5871 5871 5871 5871 5871 5870 5870 5870 5870 5870 5869 5869 5868 5868 5867 5867 5866 5866 5865 5865 5864 5864 5863 5863 5863 5862 5862 5862 5862 5862 5862 5862 5862 5862
5871 5872 5872 5872 5872 5872 5872 5872 5872 5872 5872 5872 5872 5871 5871 5871 5871 5871 5870 5870 5870 5870 5869 5869 5869 5868 5868 5867 5867 5866 5865 5864 5864 5864 5863 5863 5862 5862 5861 5861 5861 5861 5861 5861 5860 5860 5860 5860 5860
5871 5871 5872 5871 5872 5872 5872 5872 5872 5872 5872 5871 5871 5871 5871 5871 5870 5870 5870 5869 5869 5869 5868 5868 5868 5867 5866 5866 5865 5864 5864 5863 5862 5862 5862 5861 5861 5860 5860 5860 5859 5859 5859 5859 5859 5859 5859 5858 5858
5871 5871 5871 5871 5872 5872 5872 5872 5871 5871 5871 5871 5871 5870 5870 5870 5869 5869 5869 5869 5868 5868 5867 5867 5866 5866 5865 5864 5863 5863 5862 5861 5861 5860 5860 5860 5859 5859 5858 5858 5858 5858 5858 5858 5857 5857 5857 5857 5857
5870 5870 5870 5871 5871 5871 5872 5871 5871 5871 5870 5870 5870 5870 5869 5869 5869 5868 5868 5868 5867 5867 5866 5865 5865 5864 5864 5863 5862 5861 5860 5860 5859 5859 5858 5858 5858 5857 5857 5857 5856 5856 5856 5856 5856 5856 5855 5855 5855
5869 5870 5870 5870 5871 5871 5871 5870 5870 5870 5870 5870 5869 5869 5868 5868 5868 5867 5867 5867 5866 5866 5865 5864 5864 5863 5862 5861 5861 5860 5859 5858 5858 5857 5857 5856 5856 5855 5855 5855 5855 5854 5854 5854 5854 5854 5853 5853 5853
5868 5870 5869 5870 5870 5870 5870 5870 5869 5869 5869 5869 5868 5868 5867 5867 5866 5866 5866 5865 5865 5864 5864 5863 5862 5861 5861 5860 5859 5858 5857 5857 5856 5856 5855 5855 5854 5854 5853 5853 5852 5852 5852 5852 5852 5851 5851 5850 5850
5868 5868 5869 5869 5869 5868 5868 5868 5868 5868 5868 5868 5867 5867 5866 5865 5865 5865 5864 5864 5863 5863 5862 5861 5861 5860 5859 5858 5857 5856 5855 5855 5854 5854 5853 5853 5852 5852 5851 5851 5850 5850 5850 5849 5849 5849 5849 5848 5848
5866 5867 5867 5867 5867 5867 5866 5867 5867 5867 5867 5866 5866 5865 5864 5864 5864 5863 5863 5863 5862 5861 5861 5860 5859 5858 5857 5856 5856 5855 5854 5853 5852 5852 5851 5851 5850 5850 5849 5848 5848 5848 5848 5847 5847 5846 5846 5846 5846
5865 5865 5865 5866 5865 5865 5865 5865 5865 5865 5865 5864 5864 5863 5863 5863 5862 5862 5862 5861 5861 5860 5859 5858 5858 5857 5856 5855 5854 5853 5852 5851 5850 5850 5849 5848 5848 5847 5847 5846 5846 5845 5845 5845 5844 5844 5844 5843 5843
5864 5864 5864 5864 5864 5864 5863 5863 5863 5863 5863 5862 5862 5862 5861 5861 5861 5860 5860 5860 5859 5859 5858 5857 5856 5855 5854 5853 5852 5851 5850 5849 5848 5847 5846 5846 5845 5845 5845 5844 5843 5843 5843 5842 5842 5842 5841 5841 5841
5862 5862 5862 5862 5862 5862 5862 5862 5862 5861 5861 5860 5860 5860 5860 5859 5859 5858 5858 5858 5857 5857 5856 5855 5854 5853 5852 5851 5850 5849 5848 5847 5846 5845 5844 5843 5843 5843 5842 5842 5841 5841 5840 5840 5839 5839 5839 5838 5838
5860 5861 5861 5860 5860 5860 5860 5860 5859 5859 5858 5858 5858 5858 5857 5857 5857 5856 5856 5856 5855 5855 5854 5853 5852 5851 5850 5849 5848 5847 5846 5845 5843 5842 5841 5841 5841 5840 5840 5839 5839 5838 5837 5837 5837 5836 5836 5835 5835
5858 5859 5859 5858 5858 5857 5859 5858 5857 5856 5856 5856 5855 5855 5855 5854 5854 5854 5854 5853 5853 5852 5851 5851 5850 5849 5847 5847 5845 5844 5843 5842 5841 5840 5839 5839 5838 5838 5837 5837 5836 5835 5835 5834 5834 5833 5833 5832 5832
5856 5856 5856 5856 5855 5854 5854 5855 5854 5853 5853 5853 5853 5852 5852 5852 5852 5851 5851 5851 5850 5849 5849 5848 5847 5846 5845 5844 5843 5842 5841 5840 5839 5838 5837 5836 5836 5835 5835 5834 5834 5833 5832 5832 5831 5831 5830 5830 5829
5853 5853 5852 5852 5852 5851 5851 5851 5851 5850 5850 5850 5850 5849 5849 5849 5849 5848 5848 5848 5847 5847 5846 5845 5844 5843 5842 5841 5840 5840 5839 5838 5837 5836 5835 5834 5834 5833 5833 5832 5831 5831 5830 5829 5829 5828 5827 5827 5826
5850 5850 5849 5849 5848 5848 5848 5848 5847 5847 5846 5846 5846 5846 5846 5846 5846 5846 5845 5845 5844 5844 5843 5842 5841 5840 5839 5838 5837 5837 5836 5835 5834 5834 5833 5832 5831 5831 5830 5829 5829 5828 5828 5827 5826 5825 5825 5824 5824
5847 5846 5846 5846 5845 5844 5844 5844 5844 5844 5843 5843 5843 5843 5843 5843 5843 5843 5842 5841 5841 5840 5839 5838 5838 5836 5835 5835 5834 5834 5833 5832 5832 5831 5830 5829 5829 5828 5827 5827 5826 5825 5825 5824 5823 5823 5822 5821 5821
5843 5843 5843 5842 5841 5840 5841 5841 5841 5841 5840 5840 5840 5839 5839 5839 5839 5839 5838 5838 5837 5836 5835 5834 5833 5832 5832 5831 5830 5830 5830 5829 5828 5828 5827 5826 5826 5825 5825 5824 5823 5822 5822 5821 5820 5820 5819 5818 5818
5840 5840 5839 5838 5838 5837 5837 5837 5838 5837 5837 5836 5836 5836 5836 5836 5835 5835 5835 5834 5833 5832 5831 5830 5829 5828 5827 5827 5827 5826 5826 5825 5825 5824 5824 5823 5822 5822 5821 5821 5820 5819 5819 5818 5817 5817 5816 5815 5814
5836 5836 5835 5834 5834 5834 5833 5833 5834 5833 5833 5833 5832 5832 5832 5832 5832 5831 5831 5830 5829 5828 5827 5826 5825 5824 5823 5823 5822 5822 5822 5822 5821 5820 5820 5820 5819 5818 5818 5817 5816 5816 5815 5814 5814 5813 5812 5811 5811
5832 5832 5832 5831 5830 5830 5830 5829 5830 5829 5829 5828 5828 5828 5827 5827 5827 5827 5826 5826 5825 5824 5823 5822 5821 5820 5819 5819 5818 5818 5818 5817 5817 5816 5816 5816 5815 5815 5814 5813 5813 5812 5811 5811 5810 5809 5808 5808 5807
5829 5829 5828 5827 5827 5827 5826 5825 5826 5825 5824 5824 5824 5823 5823 5823 5823 5822 5822 5821 5820 5819 5819 5818 5817 5816 5815 5814 5814 5813 5813 5813 5813 5812 5812 5812 5811 5811 5810 5809 5809 5808 5807 5807 5806 5805 5804 5803 5802
5824 5824 5825 5824 5823 5823 5822 5821 5822 5821 5820 5819 5819 5819 5818 5818 5818 5817 5817 5816 5815 5815 5814 5813 5812 5811 5811 5810 5809 5809 5808 5808 5808 5808 5807 5807 5807 5806 5806 5805 5804 5804 5803 5802 5801 5800 5799 5799 5798
5820 5819 5820 5819 5818 5818 5818 5818 5817 5816 5816 5815 5815 5814 5814 5814 5813 5813 5812 5811 5811 5810 5809 5808 5808 5807 5806 5805 5804 5804 5804 5803 5803 5803 5802 5802 5802 5801 5801 5800 5799 5799 5798 5797 5796 5795 5794 5794 5793
5816 5815 5815 5814 5813 5813 5813 5813 5813 5812 5811 5811 5810 5809 5809 5809 5808 5807 5807 5806 5805 5805 5804 5803 5802 5801 5800 5800 5799 5798 5798 5798 5797 5797 5797 5797 5797 5796 5795 5795 5794 5794 5793 5792 5791 5790 5789 5788 5787
5811 5811 5810 5809 5809 5808 5808 5811 5808 5807 5806 5805 5805 5804 5804 5804 5803 5802 5802 5801 5801 5800 5799 5798 5797 5796 5795 5794 5793 5792 5792 5792 5791 5791 5791 5791 5791 5790 5790 5789 5788 5788 5787 5786 5785 5785 5784 5783 5781
5805 5805 5805 5805 5804 5803 5802 5806 5803 5802 5801 5800 5800 5799 5799 5798 5798 5797 5796 5796 5795 5795 5794 5792 5791 5790 5789 5788 5787 5786 5786 5785 5785 5785 5785 5784 5784 5784 5784 5783 5782 5782 5781 5780 5779 5779 5778 5776 5775